Regional Weather Roundup
Issued by NWS Binghamton, NY

Home | Current Version | Previous Version | Text Only | Print | Product List | Glossary On
Versions: 1 2 3 4 5 6 7 8 9 10 11 12 13 14 15 16 17 18 19 20 21 22 23 24 25 26 27
000
ASUS41 KBGM 221010
RWRBGM

REGIONAL WEATHER ROUNDUP
NATIONAL WEATHER SERVICE BINGHAMTON NY
600 AM EDT SUN OCT 22 2017

Note: "fair" indicates few or no clouds below 12,000 feet with no
significant weather and/or obstructions to visibility.

* = Station(s) that does not report precipitation, such as rain,
snow, etc, also no thunder or fog.

NYZ009-015>018-022>025-036-037-044>046-055>057-062-221100
...Central New York...

CITY           SKY/WX    TMP DP  RH WIND       PRES   REMARKS
Binghamton     CLEAR     51  39  63 S6        30.36R
Cortland       FAIR      41  41 100 CALM      30.36R
Dansville      PTCLDY    49  42  77 SE6       30.33R
Elmira         CLEAR     39  39 100 CALM      30.35R FOG
Seneca Falls   SUNNY     52  43  71 S3        30.32S
Ithaca         CLEAR     55  41  59 SE6       30.35R
Hamilton       CLEAR     39  36  87 CALM      30.37R
Hornell        CLEAR     43  43 100 CALM      30.38R
Monticello     CLEAR     43  40  89 CALM      30.40R
Oneonta        CLEAR     52 N/A N/A CALM      30.38R
Penn Yan       PTCLDY    53  44  71 S8        30.33R
Rome           CLEAR     42  40  92 SE5       30.36S
Sidney         FOG       37  37 100 CALM      30.39S VSB 1
Syracuse       PTCLDY    45  42  89 E3        30.32R
$$

PAZ038>040-043-044-047-048-072-221100
...Northeast Pennsylvania...

CITY           SKY/WX    TMP DP  RH WIND       PRES   REMARKS
Hazleton       CLEAR     37  34  87 CALM      30.41S
Scranton       CLEAR     46  42  86 VRB3      30.38R
$$
&&
KEY
WCI = Wind Chill Index
VSB = Visibility
HX  = Heat Index
$$




USA.gov is the U.S. government's official web portal to all federal, state and local government web resources and services.